星链-5309 (STARLINK-5309 )

导读

STARLINK-5309是美国太空探索技术公司(SpaceX)星链星座的组成卫星,于北京时间2023年1月19日发射入轨。星链星座旨在构建全球覆盖的卫星互联网通信系统,该卫星承担着拓展星座网络覆盖范围、提升全球宽带通信服务能力的任务,助力星链实现对偏远地区、海洋空域等场景的互联网接入服务支撑。

基本信息
目录编号:
55310
目录名称:
STARLINK-5309
国际标识:
2023-010AT
轨道中心:
EARTH
卫星名称:
星链-5309
卫星全名:
星链-5309 (STARLINK-5309 )
卫星状态:
在轨 (已飞行1325 天)
发射日期:
2023-01-19 UTC
国别 :
美国 (US)
星等 :
--
轨道信息
数据来源 国际轨道数据 AOE轨道数据
星历时间 2026-09-04T19:54:05+0800
17小时前
查看轨道信息
2026-09-03T09:00:00+0800
2天前
查看轨道信息
半长轴 6950.182km 6950.111km
偏心率 0.0003664 0.0003202
轨道倾角 69.998° 69.997°
近地点辐角 268.009° 261.903°
升交点赤经 273.704° 277.370°
平近点角 92.065° 176.384°
近地点 569.498km 569.748km
远地点 574.592km 574.2km
周期 96.107分钟 96.105分钟
每日圈数 14.983336 14.983567
详细信息
固有亮度:
5
最大亮度:
2.5
卫星平台:
Starlink v1.5
覆盖范围:
全球
运营商:
太空探索技术公司
运营商所在国:
美国
制造商(研发单位):
太空探索技术公司
制造商所在国:
美国
使用方式:
暂无
卫星简介
星链(Starlink)计划是由太空探索技术公司(SpaceX)提出的一个巨型低轨卫星互联网星座项目,计划在2019年至2024年间在太空搭建由约1.2万颗卫星组成的“星链”网络,其中1584颗将部署在地球上空550千米处的近地轨道,并从2020年开始工作。该卫星仍在工作。
2D轨道图
3D轨道图
轨道高度分析图
轨道倾角分析图
轨道综合分析图
查看轨道综合分析图
交会数据列表
事件ID 空间交会对象 最接近时刻(TCA) 交会距离 交会风险概率(CRP) 交会风险指数(CRI) 操作
CDM_260907-024603-362505-531021
2026-09-07T
02:46:59+0000
1.433 km
极远距离
7.01164E-6 低风险 0.52
CDM_260830-031305-531006-339524
2026-08-30T
03:13:43+0000
2.175 km
极远距离
2.315679E-6 低风险 0.42